Wetterdaten: Donnerstag, 09.10.2014
Datum Zeit Temperatur Luftfeuchte Luftdruck Regen Wind Richtung Richtung Sonnenschein ET UV Solar Taupunkt Windchill Windben
09.10.2014 00:00 14,7 C 96 % 1004,8 hPa 0,0 l/m 0,8 km/h (0 Bft) O-SO 111 0 min 0,000 mm 0,0 UV-I 0 W/m 14,1 C 14,7 C 4,8 km/h (1 Bft)
09.10.2014 00:05 14,7 C 96 % 1004,5 hPa 0,0 l/m 1,9 km/h (1 Bft) O-NO 65 0 min 0,000 mm 0,0 UV-I 0 W/m 14,1 C 14,7 C 6,4 km/h (2 Bft)
09.10.2014 00:10 14,7 C 96 % 1004,2 hPa 0,0 l/m 2,6 km/h (1 Bft) O-NO 70 0 min 0,000 mm 0,0 UV-I 0 W/m 14,1 C 14,7 C 4,8 km/h (1 Bft)
09.10.2014 00:15 14,9 C 96 % 1004,1 hPa 0,2 l/m 0,8 km/h (0 Bft) O 88 0 min 0,000 mm 0,0 UV-I 0 W/m 14,3 C 14,9 C 3,2 km/h (1 Bft)
09.10.2014 00:20 14,8 C 96 % 1003,9 hPa 0,0 l/m 0,2 km/h (0 Bft) O-NO 74 0 min 0,000 mm 0,0 UV-I 0 W/m 14,2 C 14,8 C 1,6 km/h (1 Bft)
09.10.2014 00:25 14,7 C 96 % 1004,1 hPa 0,0 l/m 0,9 km/h (0 Bft) SO 139 0 min 0,000 mm 0,0 UV-I 0 W/m 14,1 C 14,7 C 3,2 km/h (1 Bft)
09.10.2014 00:30 14,5 C 95 % 1003,9 hPa 0,0 l/m 0,0 km/h (0 Bft) SO 139 0 min 0,000 mm 0,0 UV-I 0 W/m 13,7 C 14,5 C 1,6 km/h (1 Bft)
09.10.2014 00:35 14,7 C 96 % 1003,9 hPa 0,0 l/m 0,4 km/h (0 Bft) O-SO 112 0 min 0,000 mm 0,0 UV-I 0 W/m 14,1 C 14,7 C 3,2 km/h (1 Bft)
09.10.2014 00:40 14,9 C 96 % 1003,8 hPa 0,0 l/m 0,1 km/h (0 Bft) O-SO 112 0 min 0,000 mm 0,0 UV-I 0 W/m 14,3 C 14,9 C 3,2 km/h (1 Bft)
09.10.2014 00:45 14,9 C 96 % 1003,6 hPa 0,0 l/m 0,2 km/h (0 Bft) O-SO 110 0 min 0,000 mm 0,0 UV-I 0 W/m 14,3 C 14,9 C 3,2 km/h (1 Bft)
09.10.2014 00:50 15,1 C 96 % 1003,5 hPa 0,0 l/m 0,1 km/h (0 Bft) O-SO 109 0 min 0,000 mm 0,0 UV-I 0 W/m 14,5 C 15,1 C 1,6 km/h (1 Bft)
09.10.2014 00:55 15,1 C 96 % 1003,6 hPa 0,0 l/m 0,5 km/h (0 Bft) O-NO 70 0 min 0,000 mm 0,0 UV-I 0 W/m 14,5 C 15,1 C 6,4 km/h (2 Bft)
09.10.2014 01:00 15,1 C 96 % 1003,5 hPa 0,0 l/m 1,5 km/h (1 Bft) O-NO 77 0 min 0,000 mm 0,0 UV-I 0 W/m 14,5 C 15,1 C 4,8 km/h (1 Bft)
09.10.2014 01:05 15,1 C 96 % 1003,5 hPa 0,0 l/m 3,2 km/h (1 Bft) O-NO 71 0 min 0,000 mm 0,0 UV-I 0 W/m 14,5 C 15,1 C 9,7 km/h (2 Bft)
09.10.2014 01:10 15,1 C 96 % 1003,6 hPa 0,0 l/m 1,5 km/h (1 Bft) O-SO 109 0 min 0,000 mm 0,0 UV-I 0 W/m 14,5 C 15,1 C 4,8 km/h (1 Bft)
09.10.2014 01:15 15,2 C 96 % 1003,7 hPa 0,0 l/m 1,8 km/h (1 Bft) O 92 0 min 0,000 mm 0,0 UV-I 0 W/m 14,6 C 15,2 C 4,8 km/h (1 Bft)
09.10.2014 01:20 15,2 C 96 % 1003,9 hPa 0,0 l/m 0,8 km/h (0 Bft) O-NO 71 0 min 0,000 mm 0,0 UV-I 0 W/m 14,6 C 15,2 C 3,2 km/h (1 Bft)
09.10.2014 01:25 15,2 C 95 % 1004,0 hPa 0,0 l/m 0,2 km/h (0 Bft) O-NO 71 0 min 0,000 mm 0,0 UV-I 0 W/m 14,4 C 15,2 C 1,6 km/h (1 Bft)
09.10.2014 01:30 15,3 C 95 % 1004,0 hPa 0,0 l/m 2,1 km/h (1 Bft) NO 54 0 min 0,000 mm 0,0 UV-I 0 W/m 14,5 C 15,3 C 4,8 km/h (1 Bft)
09.10.2014 01:35 15,2 C 95 % 1003,9 hPa 0,0 l/m 0,1 km/h (0 Bft) NO 54 0 min 0,000 mm 0,0 UV-I 0 W/m 14,4 C 15,2 C 1,6 km/h (1 Bft)
09.10.2014 01:40 15,0 C 95 % 1004,0 hPa 0,0 l/m 0,0 km/h (0 Bft) NO 54 0 min 0,000 mm 0,0 UV-I 0 W/m 14,2 C 15,0 C 0,0 km/h (0 Bft)
09.10.2014 01:45 14,9 C 95 % 1003,9 hPa 0,0 l/m 0,0 km/h (0 Bft) NO 54 0 min 0,000 mm 0,0 UV-I 0 W/m 14,1 C 14,9 C 0,0 km/h (0 Bft)
09.10.2014 01:50 14,8 C 95 % 1004,0 hPa 0,0 l/m 0,0 km/h (0 Bft) NO 54 0 min 0,000 mm 0,0 UV-I 0 W/m 14,0 C 14,8 C 1,6 km/h (1 Bft)
09.10.2014 01:55 14,8 C 95 % 1004,1 hPa 0,0 l/m 0,0 km/h (0 Bft) O-NO 61 0 min 0,000 mm 0,0 UV-I 0 W/m 14,0 C 14,8 C 1,6 km/h (1 Bft)
09.10.2014 02:00 14,8 C 95 % 1004,1 hPa 0,0 l/m 0,6 km/h (0 Bft) NO 42 0 min 0,000 mm 0,0 UV-I 0 W/m 14,0 C 14,8 C 4,8 km/h (1 Bft)
09.10.2014 02:05 14,8 C 96 % 1004,0 hPa 0,0 l/m 0,9 km/h (0 Bft) O-NO 73 0 min 0,000 mm 0,0 UV-I 0 W/m 14,2 C 14,8 C 6,4 km/h (2 Bft)
09.10.2014 02:10 15,2 C 96 % 1004,1 hPa 0,0 l/m 3,8 km/h (1 Bft) SO 136 0 min 0,000 mm 0,0 UV-I 0 W/m 14,6 C 15,2 C 12,9 km/h (3 Bft)
09.10.2014 02:15 15,5 C 96 % 1004,2 hPa 0,0 l/m 5,1 km/h (1 Bft) S-SW 204 0 min 0,000 mm 0,0 UV-I 0 W/m 14,9 C 15,5 C 11,3 km/h (2 Bft)
09.10.2014 02:20 15,7 C 95 % 1004,3 hPa 0,0 l/m 7,0 km/h (2 Bft) S-SO 153 0 min 0,000 mm 0,0 UV-I 0 W/m 14,9 C 15,4 C 12,9 km/h (3 Bft)
09.10.2014 02:25 15,9 C 94 % 1004,4 hPa 0,0 l/m 3,6 km/h (1 Bft) SO 128 0 min 0,000 mm 0,0 UV-I 0 W/m 14,9 C 15,9 C 12,9 km/h (3 Bft)
09.10.2014 02:30 15,9 C 93 % 1004,4 hPa 0,0 l/m 2,9 km/h (1 Bft) S-SO 165 0 min 0,000 mm 0,0 UV-I 0 W/m 14,8 C 15,9 C 11,3 km/h (2 Bft)
09.10.2014 02:35 16,1 C 92 % 1004,7 hPa 0,2 l/m 5,5 km/h (1 Bft) W-NW 298 0 min 0,000 mm 0,0 UV-I 0 W/m 14,8 C 16,1 C 14,5 km/h (3 Bft)
09.10.2014 02:40 16,2 C 93 % 1005,0 hPa 0,6 l/m 8,3 km/h (2 Bft) SW 231 0 min 0,000 mm 0,0 UV-I 0 W/m 15,1 C 15,2 C 22,5 km/h (4 Bft)
09.10.2014 02:45 16,1 C 93 % 1005,2 hPa 0,2 l/m 10,1 km/h (2 Bft) SW 223 0 min 0,000 mm 0,0 UV-I 0 W/m 15,0 C 14,3 C 25,7 km/h (4 Bft)
09.10.2014 02:50 16,1 C 93 % 1005,3 hPa 0,2 l/m 10,3 km/h (2 Bft) W-SW 251 0 min 0,000 mm 0,0 UV-I 0 W/m 15,0 C 14,2 C 22,5 km/h (4 Bft)
09.10.2014 02:55 16,1 C 93 % 1005,2 hPa 0,2 l/m 7,0 km/h (2 Bft) SW 234 0 min 0,000 mm 0,0 UV-I 0 W/m 15,0 C 15,8 C 16,1 km/h (3 Bft)
09.10.2014 03:00 16,0 C 94 % 1005,2 hPa 0,0 l/m 4,5 km/h (1 Bft) W-SW 257 0 min 0,000 mm 0,0 UV-I 0 W/m 15,0 C 16,0 C 12,9 km/h (3 Bft)
09.10.2014 03:05 15,9 C 94 % 1005,0 hPa 0,0 l/m 2,9 km/h (1 Bft) S-SW 201 0 min 0,000 mm 0,0 UV-I 0 W/m 14,9 C 15,9 C 12,9 km/h (3 Bft)
09.10.2014 03:10 15,9 C 94 % 1005,1 hPa 0,0 l/m 5,9 km/h (2 Bft) SW 228 0 min 0,000 mm 0,0 UV-I 0 W/m 14,9 C 15,9 C 11,3 km/h (2 Bft)
09.10.2014 03:15 15,9 C 94 % 1005,0 hPa 0,0 l/m 1,3 km/h (1 Bft) W-SW 257 0 min 0,000 mm 0,0 UV-I 0 W/m 14,9 C 15,9 C 8,0 km/h (2 Bft)
09.10.2014 03:20 15,9 C 94 % 1004,9 hPa 0,0 l/m 2,1 km/h (1 Bft) W-SW 249 0 min 0,000 mm 0,0 UV-I 0 W/m 14,9 C 15,9 C 9,7 km/h (2 Bft)
09.10.2014 03:25 15,9 C 94 % 1005,0 hPa 0,0 l/m 0,9 km/h (0 Bft) S-SO 163 0 min 0,000 mm 0,0 UV-I 0 W/m 14,9 C 15,9 C 4,8 km/h (1 Bft)
09.10.2014 03:30 15,9 C 94 % 1005,2 hPa 0,0 l/m 2,2 km/h (1 Bft) S-SW 198 0 min 0,000 mm 0,0 UV-I 0 W/m 14,9 C 15,9 C 8,0 km/h (2 Bft)
09.10.2014 03:35 15,8 C 94 % 1005,1 hPa 0,0 l/m 5,7 km/h (1 Bft) S-SW 195 0 min 0,000 mm 0,0 UV-I 0 W/m 14,8 C 15,8 C 14,5 km/h (3 Bft)
09.10.2014 03:40 15,8 C 94 % 1005,0 hPa 0,0 l/m 6,2 km/h (2 Bft) S-SW 196 0 min 0,000 mm 0,0 UV-I 0 W/m 14,8 C 15,8 C 16,1 km/h (3 Bft)
09.10.2014 03:45 15,8 C 93 % 1004,9 hPa 0,0 l/m 3,1 km/h (1 Bft) S 188 0 min 0,000 mm 0,0 UV-I 0 W/m 14,7 C 15,8 C 11,3 km/h (2 Bft)
09.10.2014 03:50 15,8 C 93 % 1005,0 hPa 0,0 l/m 3,2 km/h (1 Bft) S 180 0 min 0,000 mm 0,0 UV-I 0 W/m 14,7 C 15,8 C 11,3 km/h (2 Bft)
09.10.2014 03:55 15,8 C 93 % 1005,0 hPa 0,0 l/m 2,7 km/h (1 Bft) W 280 0 min 0,000 mm 0,0 UV-I 0 W/m 14,7 C 15,8 C 14,5 km/h (3 Bft)
09.10.2014 04:00 15,8 C 93 % 1005,0 hPa 0,0 l/m 2,1 km/h (1 Bft) O 81 0 min 0,000 mm 0,0 UV-I 0 W/m 14,7 C 15,8 C 8,0 km/h (2 Bft)
09.10.2014 04:05 15,8 C 94 % 1005,2 hPa 0,2 l/m 2,2 km/h (1 Bft) S-SO 151 0 min 0,000 mm 0,0 UV-I 0 W/m 14,8 C 15,8 C 8,0 km/h (2 Bft)
09.10.2014 04:10 15,7 C 93 % 1005,3 hPa 0,0 l/m 6,7 km/h (2 Bft) SW 221 0 min 0,000 mm 0,0 UV-I 0 W/m 14,6 C 15,5 C 14,5 km/h (3 Bft)
09.10.2014 04:15 15,7 C 93 % 1005,4 hPa 0,0 l/m 3,2 km/h (1 Bft) W-SW 240 0 min 0,000 mm 0,0 UV-I 0 W/m 14,6 C 15,7 C 8,0 km/h (2 Bft)
09.10.2014 04:20 15,7 C 94 % 1005,4 hPa 0,0 l/m 3,6 km/h (1 Bft) S-SW 207 0 min 0,000 mm 0,0 UV-I 0 W/m 14,7 C 15,7 C 11,3 km/h (2 Bft)
09.10.2014 04:25 15,7 C 94 % 1005,3 hPa 0,0 l/m 3,1 km/h (1 Bft) SW 234 0 min 0,000 mm 0,0 UV-I 0 W/m 14,7 C 15,7 C 12,9 km/h (3 Bft)
09.10.2014 04:30 15,6 C 94 % 1005,2 hPa 0,4 l/m 2,5 km/h (1 Bft) SW 219 0 min 0,000 mm 0,0 UV-I 0 W/m 14,6 C 15,6 C 12,9 km/h (3 Bft)
09.10.2014 04:35 15,6 C 94 % 1005,2 hPa 0,0 l/m 2,9 km/h (1 Bft) W-SW 239 0 min 0,000 mm 0,0 UV-I 0 W/m 14,6 C 15,6 C 8,0 km/h (2 Bft)
09.10.2014 04:40 15,6 C 94 % 1005,2 hPa 0,0 l/m 0,1 km/h (0 Bft) W-SW 239 0 min 0,000 mm 0,0 UV-I 0 W/m 14,6 C 15,6 C 1,6 km/h (1 Bft)
09.10.2014 04:45 15,5 C 94 % 1005,2 hPa 0,0 l/m 0,8 km/h (0 Bft) S 177 0 min 0,000 mm 0,0 UV-I 0 W/m 14,5 C 15,5 C 6,4 km/h (2 Bft)
09.10.2014 04:50 15,5 C 94 % 1005,2 hPa 0,0 l/m 2,4 km/h (1 Bft) S-SW 196 0 min 0,000 mm 0,0 UV-I 0 W/m 14,5 C 15,5 C 11,3 km/h (2 Bft)
09.10.2014 04:55 15,5 C 94 % 1005,1 hPa 0,0 l/m 1,2 km/h (1 Bft) S-SW 200 0 min 0,000 mm 0,0 UV-I 0 W/m 14,5 C 15,5 C 8,0 km/h (2 Bft)
09.10.2014 05:00 15,5 C 94 % 1005,2 hPa 0,2 l/m 0,5 km/h (0 Bft) S-SW 198 0 min 0,000 mm 0,0 UV-I 0 W/m 14,5 C 15,5 C 3,2 km/h (1 Bft)
09.10.2014 05:05 15,5 C 94 % 1005,2 hPa 0,0 l/m 0,9 km/h (0 Bft) S-SW 213 0 min 0,000 mm 0,0 UV-I 0 W/m 14,5 C 15,5 C 3,2 km/h (1 Bft)
09.10.2014 05:10 15,4 C 94 % 1005,2 hPa 0,0 l/m 0,5 km/h (0 Bft) SW 221 0 min 0,000 mm 0,0 UV-I 0 W/m 14,4 C 15,4 C 4,8 km/h (1 Bft)
09.10.2014 05:15 15,4 C 94 % 1005,2 hPa 0,0 l/m 3,6 km/h (1 Bft) S 184 0 min 0,000 mm 0,0 UV-I 0 W/m 14,4 C 15,4 C 11,3 km/h (2 Bft)
09.10.2014 05:20 15,4 C 94 % 1005,3 hPa 0,0 l/m 0,9 km/h (0 Bft) SW 222 0 min 0,000 mm 0,0 UV-I 0 W/m 14,4 C 15,4 C 4,8 km/h (1 Bft)
09.10.2014 05:25 15,4 C 94 % 1005,2 hPa 0,0 l/m 0,1 km/h (0 Bft) SW 225 0 min 0,000 mm 0,0 UV-I 0 W/m 14,4 C 15,4 C 1,6 km/h (1 Bft)
09.10.2014 05:30 15,4 C 94 % 1005,2 hPa 0,0 l/m 1,6 km/h (1 Bft) S-SO 166 0 min 0,000 mm 0,0 UV-I 0 W/m 14,4 C 15,4 C 11,3 km/h (2 Bft)
09.10.2014 05:35 15,4 C 94 % 1005,1 hPa 0,2 l/m 1,6 km/h (1 Bft) W-SW 254 0 min 0,000 mm 0,0 UV-I 0 W/m 14,4 C 15,4 C 4,8 km/h (1 Bft)
09.10.2014 05:40 15,4 C 94 % 1005,1 hPa 0,0 l/m 3,0 km/h (1 Bft) S 186 0 min 0,000 mm 0,0 UV-I 0 W/m 14,4 C 15,4 C 9,7 km/h (2 Bft)
09.10.2014 05:45 15,4 C 94 % 1005,4 hPa 0,2 l/m 2,6 km/h (1 Bft) S-SO 161 0 min 0,000 mm 0,0 UV-I 0 W/m 14,4 C 15,4 C 9,7 km/h (2 Bft)
09.10.2014 05:50 15,4 C 94 % 1005,3 hPa 0,0 l/m 1,6 km/h (1 Bft) SO 125 0 min 0,000 mm 0,0 UV-I 0 W/m 14,4 C 15,4 C 6,4 km/h (2 Bft)
09.10.2014 05:55 15,4 C 94 % 1005,5 hPa 0,0 l/m 1,8 km/h (1 Bft) W 261 0 min 0,000 mm 0,0 UV-I 0 W/m 14,4 C 15,4 C 8,0 km/h (2 Bft)
09.10.2014 06:00 15,4 C 94 % 1005,6 hPa 0,0 l/m 2,1 km/h (1 Bft) SW 222 0 min 0,000 mm 0,0 UV-I 0 W/m 14,4 C 15,4 C 6,4 km/h (2 Bft)
09.10.2014 06:05 15,4 C 94 % 1005,6 hPa 0,2 l/m 2,9 km/h (1 Bft) W-SW 239 0 min 0,000 mm 0,0 UV-I 0 W/m 14,4 C 15,4 C 9,7 km/h (2 Bft)
09.10.2014 06:10 15,4 C 94 % 1005,6 hPa 0,0 l/m 5,9 km/h (2 Bft) S-SW 205 0 min 0,000 mm 0,0 UV-I 0 W/m 14,4 C 15,4 C 16,1 km/h (3 Bft)
09.10.2014 06:15 15,4 C 94 % 1005,7 hPa 0,0 l/m 3,2 km/h (1 Bft) W-SW 238 0 min 0,000 mm 0,0 UV-I 0 W/m 14,4 C 15,4 C 8,0 km/h (2 Bft)
09.10.2014 06:20 15,4 C 94 % 1005,6 hPa 0,0 l/m 1,8 km/h (1 Bft) S-SW 212 0 min 0,000 mm 0,0 UV-I 0 W/m 14,4 C 15,4 C 11,3 km/h (2 Bft)
09.10.2014 06:25 15,3 C 94 % 1005,6 hPa 0,0 l/m 3,3 km/h (1 Bft) W 273 0 min 0,000 mm 0,0 UV-I 0 W/m 14,3 C 15,3 C 6,4 km/h (2 Bft)
09.10.2014 06:30 15,4 C 94 % 1005,6 hPa 0,0 l/m 4,0 km/h (1 Bft) W 267 0 min 0,000 mm 0,0 UV-I 0 W/m 14,4 C 15,4 C 9,7 km/h (2 Bft)
09.10.2014 06:35 15,4 C 94 % 1005,6 hPa 0,0 l/m 2,0 km/h (1 Bft) W-SW 247 0 min 0,000 mm 0,0 UV-I 0 W/m 14,4 C 15,4 C 8,0 km/h (2 Bft)
09.10.2014 06:40 15,4 C 94 % 1005,7 hPa 0,2 l/m 0,7 km/h (0 Bft) S-SO 160 0 min 0,000 mm 0,0 UV-I 0 W/m 14,4 C 15,4 C 4,8 km/h (1 Bft)
09.10.2014 06:45 15,3 C 94 % 1005,7 hPa 0,2 l/m 1,0 km/h (0 Bft) SW 220 0 min 0,000 mm 0,0 UV-I 0 W/m 14,3 C 15,3 C 6,4 km/h (2 Bft)
09.10.2014 06:50 15,3 C 94 % 1005,8 hPa 0,2 l/m 0,5 km/h (0 Bft) SW 222 0 min 0,000 mm 0,0 UV-I 0 W/m 14,3 C 15,3 C 3,2 km/h (1 Bft)
09.10.2014 06:55 15,3 C 94 % 1005,9 hPa 0,2 l/m 0,2 km/h (0 Bft) W 261 0 min 0,000 mm 0,0 UV-I 0 W/m 14,3 C 15,3 C 3,2 km/h (1 Bft)
09.10.2014 07:00 15,3 C 94 % 1005,9 hPa 0,2 l/m 2,4 km/h (1 Bft) W-SW 248 0 min 0,000 mm 0,0 UV-I 0 W/m 14,3 C 15,3 C 8,0 km/h (2 Bft)
09.10.2014 07:05 15,3 C 95 % 1005,8 hPa 0,0 l/m 1,7 km/h (1 Bft) S 185 0 min 0,000 mm 0,0 UV-I 0 W/m 14,5 C 15,3 C 9,7 km/h (2 Bft)
09.10.2014 07:10 15,3 C 95 % 1005,6 hPa 0,0 l/m 1,6 km/h (1 Bft) SW 221 0 min 0,000 mm 0,0 UV-I 0 W/m 14,5 C 15,3 C 6,4 km/h (2 Bft)
09.10.2014 07:15 15,3 C 95 % 1005,7 hPa 0,0 l/m 0,9 km/h (0 Bft) W-SW 244 0 min 0,000 mm 0,0 UV-I 0 W/m 14,5 C 15,3 C 8,0 km/h (2 Bft)
09.10.2014 07:20 15,3 C 95 % 1005,7 hPa 0,0 l/m 1,1 km/h (1 Bft) W-SW 239 0 min 0,000 mm 0,0 UV-I 0 W/m 14,5 C 15,3 C 6,4 km/h (2 Bft)
09.10.2014 07:25 15,3 C 95 % 1005,7 hPa 0,0 l/m 3,6 km/h (1 Bft) W-SW 247 0 min 0,000 mm 0,0 UV-I 0 W/m 14,5 C 15,3 C 11,3 km/h (2 Bft)
09.10.2014 07:30 15,3 C 95 % 1005,7 hPa 0,0 l/m 2,2 km/h (1 Bft) W-SW 251 0 min 0,000 mm 0,0 UV-I 0 W/m 14,5 C 15,3 C 8,0 km/h (2 Bft)
09.10.2014 07:35 15,3 C 95 % 1005,8 hPa 0,0 l/m 5,4 km/h (1 Bft) SW 220 0 min 0,000 mm 0,0 UV-I 0 W/m 14,5 C 15,3 C 9,7 km/h (2 Bft)
09.10.2014 07:40 15,4 C 94 % 1006,0 hPa 0,0 l/m 5,4 km/h (1 Bft) SW 225 0 min 0,000 mm 0,0 UV-I 0 W/m 14,4 C 15,4 C 12,9 km/h (3 Bft)
09.10.2014 07:45 15,4 C 94 % 1006,0 hPa 0,0 l/m 5,3 km/h (1 Bft) SW 229 0 min 0,000 mm 0,0 UV-I 0 W/m 14,4 C 15,4 C 11,3 km/h (2 Bft)
09.10.2014 07:50 15,4 C 94 % 1006,1 hPa 0,0 l/m 4,0 km/h (1 Bft) W-SW 253 0 min 0,000 mm 0,0 UV-I 0 W/m 14,4 C 15,4 C 11,3 km/h (2 Bft)
09.10.2014 07:55 15,5 C 94 % 1006,1 hPa 0,0 l/m 2,5 km/h (1 Bft) S-SW 196 0 min 0,000 mm 0,0 UV-I 0 W/m 14,5 C 15,5 C 9,7 km/h (2 Bft)
09.10.2014 08:00 15,6 C 94 % 1006,1 hPa 0,0 l/m 2,9 km/h (1 Bft) W-SW 250 0 min 0,000 mm 0,0 UV-I 0 W/m 14,6 C 15,6 C 9,7 km/h (2 Bft)
09.10.2014 08:05 15,6 C 94 % 1006,0 hPa 0,0 l/m 1,1 km/h (1 Bft) W-SW 250 0 min 0,000 mm 0,0 UV-I 1 W/m 14,6 C 15,6 C 6,4 km/h (2 Bft)
09.10.2014 08:10 15,5 C 94 % 1006,0 hPa 0,0 l/m 0,3 km/h (0 Bft) S-SW 208 0 min 0,000 mm 0,0 UV-I 0 W/m 14,5 C 15,5 C 3,2 km/h (1 Bft)
09.10.2014 08:15 15,5 C 94 % 1006,1 hPa 0,0 l/m 0,6 km/h (0 Bft) SW 217 0 min 0,000 mm 0,0 UV-I 0 W/m 14,5 C 15,5 C 4,8 km/h (1 Bft)
09.10.2014 08:20 15,5 C 94 % 1006,0 hPa 0,0 l/m 0,6 km/h (0 Bft) S-SW 212 0 min 0,000 mm 0,0 UV-I 1 W/m 14,5 C 15,5 C 4,8 km/h (1 Bft)
09.10.2014 08:25 15,4 C 94 % 1006,0 hPa 0,0 l/m 0,3 km/h (0 Bft) S-SW 204 0 min 0,000 mm 0,0 UV-I 7 W/m 14,4 C 15,4 C 4,8 km/h (1 Bft)
09.10.2014 08:30 15,4 C 94 % 1006,1 hPa 0,0 l/m 0,7 km/h (0 Bft) S 187 0 min 0,000 mm 0,0 UV-I 9 W/m 14,4 C 15,4 C 4,8 km/h (1 Bft)
09.10.2014 08:35 15,4 C 94 % 1006,1 hPa 0,0 l/m 2,0 km/h (1 Bft) SO 138 0 min 0,000 mm 0,0 UV-I 9 W/m 14,4 C 15,4 C 6,4 km/h (2 Bft)
09.10.2014 08:40 15,5 C 94 % 1006,1 hPa 0,0 l/m 2,6 km/h (1 Bft) S-SW 200 0 min 0,000 mm 0,0 UV-I 12 W/m 14,5 C 15,5 C 8,0 km/h (2 Bft)
09.10.2014 08:45 15,5 C 94 % 1006,1 hPa 0,2 l/m 0,4 km/h (0 Bft) O-SO 109 0 min 0,000 mm 0,0 UV-I 12 W/m 14,5 C 15,5 C 4,8 km/h (1 Bft)
09.10.2014 08:50 15,5 C 94 % 1006,2 hPa 0,0 l/m 2,1 km/h (1 Bft) S-SO 165 0 min 0,000 mm 0,0 UV-I 12 W/m 14,5 C 15,5 C 6,4 km/h (2 Bft)
09.10.2014 08:55 15,5 C 94 % 1006,2 hPa 0,0 l/m 1,1 km/h (1 Bft) S 169 0 min 0,000 mm 0,0 UV-I 13 W/m 14,5 C 15,5 C 6,4 km/h (2 Bft)
09.10.2014 09:00 15,6 C 94 % 1006,3 hPa 0,0 l/m 0,2 km/h (0 Bft) S 171 0 min 0,000 mm 0,0 UV-I 20 W/m 14,6 C 15,6 C 3,2 km/h (1 Bft)
09.10.2014 09:05 15,6 C 94 % 1006,4 hPa 0,0 l/m 0,0 km/h (0 Bft) S 171 0 min 0,000 mm 0,0 UV-I 21 W/m 14,6 C 15,6 C 1,6 km/h (1 Bft)
09.10.2014 09:10 15,6 C 94 % 1006,3 hPa 0,0 l/m 0,4 km/h (0 Bft) S 191 0 min 0,000 mm 0,0 UV-I 23 W/m 14,6 C 15,6 C 6,4 km/h (2 Bft)
09.10.2014 09:15 15,6 C 95 % 1006,4 hPa 0,0 l/m 1,5 km/h (1 Bft) S-SW 192 0 min 0,000 mm 0,0 UV-I 32 W/m 14,8 C 15,6 C 4,8 km/h (1 Bft)
09.10.2014 09:20 15,6 C 95 % 1006,5 hPa 0,0 l/m 1,0 km/h (0 Bft) SW 225 0 min 0,000 mm 0,0 UV-I 29 W/m 14,8 C 15,6 C 8,0 km/h (2 Bft)
09.10.2014 09:25 15,7 C 95 % 1006,5 hPa 0,0 l/m 1,0 km/h (0 Bft) S 182 0 min 0,000 mm 0,0 UV-I 25 W/m 14,9 C 15,7 C 8,0 km/h (2 Bft)
09.10.2014 09:30 15,7 C 95 % 1006,6 hPa 0,0 l/m 1,3 km/h (1 Bft) S 170 0 min 0,000 mm 0,0 UV-I 18 W/m 14,9 C 15,7 C 6,4 km/h (2 Bft)
09.10.2014 09:35 15,7 C 95 % 1006,7 hPa 0,0 l/m 3,5 km/h (1 Bft) SW 215 0 min 0,000 mm 0,0 UV-I 15 W/m 14,9 C 15,7 C 8,0 km/h (2 Bft)
09.10.2014 09:40 15,7 C 94 % 1006,7 hPa 0,0 l/m 2,7 km/h (1 Bft) S 173 0 min 0,000 mm 0,0 UV-I 13 W/m 14,7 C 15,7 C 8,0 km/h (2 Bft)
09.10.2014 09:45 15,8 C 94 % 1006,7 hPa 0,0 l/m 3,5 km/h (1 Bft) S-SW 212 0 min 0,000 mm 0,0 UV-I 19 W/m 14,8 C 15,8 C 8,0 km/h (2 Bft)
09.10.2014 09:50 15,8 C 94 % 1006,7 hPa 0,0 l/m 3,7 km/h (1 Bft) SO 146 0 min 0,000 mm 0,0 UV-I 18 W/m 14,8 C 15,8 C 9,7 km/h (2 Bft)
09.10.2014 09:55 15,8 C 94 % 1006,7 hPa 0,0 l/m 3,3 km/h (1 Bft) S-SW 209 0 min 0,000 mm 0,0 UV-I 22 W/m 14,8 C 15,8 C 14,5 km/h (3 Bft)
09.10.2014 10:00 15,8 C 94 % 1006,7 hPa 0,0 l/m 2,1 km/h (1 Bft) S-SW 209 0 min 0,025 mm 0,0 UV-I 22 W/m 14,8 C 15,8 C 9,7 km/h (2 Bft)
09.10.2014 10:05 15,8 C 94 % 1006,8 hPa 0,0 l/m 1,5 km/h (1 Bft) W-SW 240 0 min 0,000 mm 0,0 UV-I 24 W/m 14,8 C 15,8 C 8,0 km/h (2 Bft)
09.10.2014 10:10 15,9 C 94 % 1006,8 hPa 0,0 l/m 2,7 km/h (1 Bft) S 171 0 min 0,000 mm 0,0 UV-I 36 W/m 14,9 C 15,9 C 6,4 km/h (2 Bft)
09.10.2014 10:15 15,9 C 94 % 1006,9 hPa 0,0 l/m 4,1 km/h (1 Bft) S 188 0 min 0,000 mm 0,0 UV-I 47 W/m 14,9 C 15,9 C 11,3 km/h (2 Bft)
09.10.2014 10:20 15,9 C 94 % 1006,9 hPa 0,0 l/m 2,6 km/h (1 Bft) S 183 0 min 0,000 mm 0,0 UV-I 36 W/m 14,9 C 15,9 C 9,7 km/h (2 Bft)
09.10.2014 10:25 15,9 C 94 % 1007,0 hPa 0,0 l/m 2,3 km/h (1 Bft) W-SW 247 0 min 0,000 mm 0,0 UV-I 25 W/m 14,9 C 15,9 C 9,7 km/h (2 Bft)
09.10.2014 10:30 16,0 C 94 % 1007,0 hPa 0,0 l/m 4,9 km/h (1 Bft) S-SW 211 0 min 0,000 mm 0,0 UV-I 29 W/m 15,0 C 16,0 C 14,5 km/h (3 Bft)
09.10.2014 10:35 16,1 C 94 % 1007,1 hPa 0,0 l/m 4,4 km/h (1 Bft) SW 234 0 min 0,000 mm 0,1 UV-I 53 W/m 15,1 C 16,1 C 11,3 km/h (2 Bft)
09.10.2014 10:40 16,1 C 94 % 1007,1 hPa 0,0 l/m 5,0 km/h (1 Bft) SW 225 0 min 0,000 mm 0,5 UV-I 61 W/m 15,1 C 16,1 C 12,9 km/h (3 Bft)
09.10.2014 10:45 16,1 C 94 % 1007,1 hPa 0,0 l/m 2,7 km/h (1 Bft) SW 232 0 min 0,000 mm 0,5 UV-I 62 W/m 15,1 C 16,1 C 11,3 km/h (2 Bft)
09.10.2014 10:50 16,2 C 94 % 1007,2 hPa 0,0 l/m 1,6 km/h (1 Bft) S-SW 213 0 min 0,000 mm 0,5 UV-I 58 W/m 15,2 C 16,2 C 8,0 km/h (2 Bft)
09.10.2014 10:55 16,2 C 94 % 1007,2 hPa 0,0 l/m 3,7 km/h (1 Bft) W-SW 239 0 min 0,000 mm 0,2 UV-I 52 W/m 15,2 C 16,2 C 11,3 km/h (2 Bft)
09.10.2014 11:00 16,2 C 94 % 1007,3 hPa 0,0 l/m 2,8 km/h (1 Bft) W 261 0 min 0,000 mm 0,0 UV-I 37 W/m 15,2 C 16,2 C 9,7 km/h (2 Bft)
09.10.2014 11:05 16,2 C 94 % 1007,3 hPa 0,0 l/m 2,3 km/h (1 Bft) S 187 0 min 0,026 mm 0,0 UV-I 32 W/m 15,2 C 16,2 C 9,7 km/h (2 Bft)
09.10.2014 11:10 16,2 C 94 % 1007,3 hPa 0,0 l/m 3,4 km/h (1 Bft) S 189 0 min 0,000 mm 0,0 UV-I 30 W/m 15,2 C 16,2 C 11,3 km/h (2 Bft)
09.10.2014 11:15 16,2 C 94 % 1007,3 hPa 0,0 l/m 2,5 km/h (1 Bft) S-SW 210 0 min 0,000 mm 0,0 UV-I 43 W/m 15,2 C 16,2 C 11,3 km/h (2 Bft)
09.10.2014 11:20 16,2 C 93 % 1007,3 hPa 0,0 l/m 3,7 km/h (1 Bft) SW 224 0 min 0,000 mm 0,0 UV-I 38 W/m 15,1 C 16,2 C 14,5 km/h (3 Bft)
09.10.2014 11:25 16,3 C 94 % 1007,3 hPa 0,0 l/m 1,6 km/h (1 Bft) W 270 0 min 0,000 mm 0,4 UV-I 66 W/m 15,3 C 16,3 C 6,4 km/h (2 Bft)
09.10.2014 11:30 16,3 C 94 % 1007,3 hPa 0,0 l/m 3,2 km/h (1 Bft) W-SW 257 0 min 0,000 mm 0,2 UV-I 54 W/m 15,3 C 16,3 C 11,3 km/h (2 Bft)
09.10.2014 11:35 16,3 C 94 % 1007,2 hPa 0,0 l/m 3,7 km/h (1 Bft) S-SW 207 0 min 0,000 mm 0,3 UV-I 60 W/m 15,3 C 16,3 C 12,9 km/h (3 Bft)
09.10.2014 11:40 16,4 C 94 % 1007,1 hPa 0,0 l/m 0,9 km/h (0 Bft) S 189 0 min 0,000 mm 0,7 UV-I 83 W/m 15,4 C 16,4 C 6,4 km/h (2 Bft)
09.10.2014 11:45 16,4 C 94 % 1007,1 hPa 0,0 l/m 3,1 km/h (1 Bft) S 188 0 min 0,000 mm 0,6 UV-I 79 W/m 15,4 C 16,4 C 8,0 km/h (2 Bft)
09.10.2014 11:50 16,4 C 94 % 1007,1 hPa 0,0 l/m 3,3 km/h (1 Bft) SW 219 0 min 0,000 mm 0,8 UV-I 92 W/m 15,4 C 16,4 C 9,7 km/h (2 Bft)
09.10.2014 11:55 16,5 C 94 % 1007,1 hPa 0,0 l/m 1,7 km/h (1 Bft) W 263 0 min 0,000 mm 0,7 UV-I 86 W/m 15,5 C 16,5 C 6,4 km/h (2 Bft)
09.10.2014 12:00 16,5 C 94 % 1007,2 hPa 0,0 l/m 1,7 km/h (1 Bft) S-SW 200 0 min 0,025 mm 0,7 UV-I 72 W/m 15,5 C 16,5 C 6,4 km/h (2 Bft)
09.10.2014 12:05 16,5 C 93 % 1007,3 hPa 0,0 l/m 6,2 km/h (2 Bft) O-SO 114 0 min 0,000 mm 0,7 UV-I 75 W/m 15,4 C 16,5 C 16,1 km/h (3 Bft)
09.10.2014 12:10 16,5 C 93 % 1007,4 hPa 0,0 l/m 4,7 km/h (1 Bft) SW 224 0 min 0,000 mm 0,7 UV-I 80 W/m 15,4 C 16,5 C 12,9 km/h (3 Bft)
09.10.2014 12:15 16,5 C 93 % 1007,4 hPa 0,0 l/m 6,3 km/h (2 Bft) W 276 0 min 0,000 mm 0,7 UV-I 89 W/m 15,4 C 16,5 C 11,3 km/h (2 Bft)
09.10.2014 12:20 16,6 C 93 % 1007,4 hPa 0,2 l/m 5,0 km/h (1 Bft) S-SW 206 0 min 0,000 mm 0,8 UV-I 90 W/m 15,5 C 16,6 C 12,9 km/h (3 Bft)
09.10.2014 12:25 16,6 C 93 % 1007,4 hPa 0,0 l/m 5,9 km/h (2 Bft) S-SW 203 0 min 0,000 mm 0,8 UV-I 85 W/m 15,5 C 16,6 C 14,5 km/h (3 Bft)
09.10.2014 12:30 16,6 C 93 % 1007,4 hPa 0,0 l/m 3,1 km/h (1 Bft) S-SW 194 0 min 0,000 mm 0,8 UV-I 90 W/m 15,5 C 16,6 C 9,7 km/h (2 Bft)
09.10.2014 12:35 16,6 C 94 % 1007,4 hPa 0,0 l/m 3,5 km/h (1 Bft) S 177 0 min 0,000 mm 0,7 UV-I 81 W/m 15,6 C 16,6 C 11,3 km/h (2 Bft)
09.10.2014 12:40 16,6 C 93 % 1007,4 hPa 0,2 l/m 3,7 km/h (1 Bft) W 261 0 min 0,000 mm 0,7 UV-I 79 W/m 15,5 C 16,6 C 11,3 km/h (2 Bft)
09.10.2014 12:45 16,6 C 93 % 1007,3 hPa 0,0 l/m 3,2 km/h (1 Bft) S 190 0 min 0,000 mm 0,6 UV-I 65 W/m 15,5 C 16,6 C 8,0 km/h (2 Bft)
09.10.2014 12:50 16,6 C 93 % 1007,3 hPa 0,2 l/m 2,6 km/h (1 Bft) S-SO 159 0 min 0,000 mm 0,8 UV-I 91 W/m 15,5 C 16,6 C 9,7 km/h (2 Bft)
09.10.2014 12:55 16,6 C 94 % 1007,1 hPa 0,0 l/m 0,5 km/h (0 Bft) SO 144 0 min 0,000 mm 0,7 UV-I 80 W/m 15,6 C 16,6 C 3,2 km/h (1 Bft)
09.10.2014 13:00 16,6 C 93 % 1007,1 hPa 0,0 l/m 1,7 km/h (1 Bft) S-SW 198 0 min 0,000 mm 0,5 UV-I 60 W/m 15,5 C 16,6 C 8,0 km/h (2 Bft)
09.10.2014 13:05 16,6 C 94 % 1007,1 hPa 0,0 l/m 2,6 km/h (1 Bft) S 169 0 min 0,051 mm 0,6 UV-I 70 W/m 15,6 C 16,6 C 9,7 km/h (2 Bft)
09.10.2014 13:10 16,6 C 94 % 1007,1 hPa 0,0 l/m 3,0 km/h (1 Bft) S 187 0 min 0,000 mm 1,3 UV-I 159 W/m 15,6 C 16,6 C 8,0 km/h (2 Bft)
09.10.2014 13:15 16,7 C 94 % 1007,2 hPa 0,0 l/m 3,6 km/h (1 Bft) S 178 0 min 0,000 mm 1,3 UV-I 150 W/m 15,7 C 16,7 C 9,7 km/h (2 Bft)
09.10.2014 13:20 16,8 C 94 % 1007,2 hPa 0,0 l/m 2,6 km/h (1 Bft) S-SW 201 0 min 0,000 mm 1,7 UV-I 209 W/m 15,8 C 16,8 C 8,0 km/h (2 Bft)
09.10.2014 13:25 16,9 C 94 % 1007,2 hPa 0,0 l/m 3,1 km/h (1 Bft) W-SW 242 0 min 0,000 mm 1,1 UV-I 122 W/m 15,9 C 16,9 C 9,7 km/h (2 Bft)
09.10.2014 13:30 16,9 C 94 % 1007,1 hPa 0,0 l/m 4,4 km/h (1 Bft) W-SW 250 0 min 0,000 mm 1,2 UV-I 143 W/m 15,9 C 16,9 C 12,9 km/h (3 Bft)
09.10.2014 13:35 17,0 C 94 % 1007,1 hPa 0,0 l/m 2,8 km/h (1 Bft) S-SW 207 0 min 0,000 mm 1,0 UV-I 109 W/m 16,0 C 17,0 C 11,3 km/h (2 Bft)
09.10.2014 13:40 17,0 C 93 % 1007,1 hPa 0,0 l/m 3,8 km/h (1 Bft) SW 231 0 min 0,000 mm 0,8 UV-I 105 W/m 15,9 C 17,0 C 14,5 km/h (3 Bft)
09.10.2014 13:45 17,1 C 94 % 1007,1 hPa 0,0 l/m 1,2 km/h (1 Bft) S-SW 200 0 min 0,000 mm 1,1 UV-I 138 W/m 16,1 C 17,1 C 6,4 km/h (2 Bft)
09.10.2014 13:50 17,1 C 94 % 1007,2 hPa 0,0 l/m 3,8 km/h (1 Bft) SW 234 0 min 0,000 mm 0,9 UV-I 115 W/m 16,1 C 17,1 C 11,3 km/h (2 Bft)
09.10.2014 13:55 17,1 C 93 % 1007,1 hPa 0,0 l/m 2,8 km/h (1 Bft) S 184 0 min 0,000 mm 0,5 UV-I 66 W/m 16,0 C 17,1 C 9,7 km/h (2 Bft)
09.10.2014 14:00 17,1 C 93 % 1007,1 hPa 0,0 l/m 1,2 km/h (1 Bft) SW 235 0 min 0,000 mm 0,1 UV-I 47 W/m 16,0 C 17,1 C 4,8 km/h (1 Bft)
09.10.2014 14:05 17,1 C 93 % 1007,1 hPa 0,0 l/m 2,4 km/h (1 Bft) S-SO 154 0 min 0,076 mm 0,8 UV-I 91 W/m 16,0 C 17,1 C 11,3 km/h (2 Bft)
09.10.2014 14:10 17,2 C 93 % 1007,1 hPa 0,0 l/m 2,4 km/h (1 Bft) SO 146 0 min 0,000 mm 1,1 UV-I 161 W/m 16,1 C 17,2 C 8,0 km/h (2 Bft)
09.10.2014 14:15 17,2 C 93 % 1007,0 hPa 0,0 l/m 5,0 km/h (1 Bft) SO 127 0 min 0,000 mm 0,8 UV-I 112 W/m 16,1 C 17,2 C 11,3 km/h (2 Bft)
09.10.2014 14:20 17,2 C 93 % 1006,9 hPa 0,0 l/m 1,9 km/h (1 Bft) O-SO 111 0 min 0,000 mm 0,7 UV-I 88 W/m 16,1 C 17,2 C 6,4 km/h (2 Bft)
09.10.2014 14:25 17,2 C 92 % 1006,6 hPa 0,0 l/m 4,9 km/h (1 Bft) O 100 0 min 0,000 mm 0,4 UV-I 57 W/m 15,9 C 17,2 C 12,9 km/h (3 Bft)
09.10.2014 14:30 17,2 C 93 % 1006,6 hPa 0,0 l/m 5,4 km/h (1 Bft) S-SO 150 0 min 0,000 mm 0,0 UV-I 38 W/m 16,1 C 17,2 C 9,7 km/h (2 Bft)
09.10.2014 14:35 17,2 C 92 % 1006,7 hPa 0,0 l/m 5,6 km/h (1 Bft) SO 129 0 min 0,000 mm 0,0 UV-I 37 W/m 15,9 C 17,2 C 14,5 km/h (3 Bft)
09.10.2014 14:40 17,2 C 93 % 1006,6 hPa 0,0 l/m 4,6 km/h (1 Bft) S-SO 158 0 min 0,000 mm 0,3 UV-I 53 W/m 16,1 C 17,2 C 11,3 km/h (2 Bft)
09.10.2014 14:45 17,1 C 92 % 1006,6 hPa 0,0 l/m 7,9 km/h (2 Bft) O-NO 78 0 min 0,000 mm 0,2 UV-I 58 W/m 15,8 C 16,4 C 17,7 km/h (3 Bft)
09.10.2014 14:50 17,1 C 92 % 1006,7 hPa 0,0 l/m 4,3 km/h (1 Bft) S-SO 155 0 min 0,000 mm 0,0 UV-I 31 W/m 15,8 C 17,1 C 17,7 km/h (3 Bft)
09.10.2014 14:55 17,1 C 93 % 1006,7 hPa 0,0 l/m 2,1 km/h (1 Bft) SW 223 0 min 0,000 mm 0,0 UV-I 29 W/m 16,0 C 17,1 C 9,7 km/h (2 Bft)
09.10.2014 15:00 17,1 C 93 % 1006,7 hPa 0,0 l/m 4,3 km/h (1 Bft) S 182 0 min 0,000 mm 0,0 UV-I 34 W/m 16,0 C 17,1 C 11,3 km/h (2 Bft)
09.10.2014 15:05 17,1 C 93 % 1006,8 hPa 0,0 l/m 3,4 km/h (1 Bft) W 269 0 min 0,051 mm 0,0 UV-I 22 W/m 16,0 C 17,1 C 11,3 km/h (2 Bft)
09.10.2014 15:10 17,0 C 93 % 1006,9 hPa 0,2 l/m 3,7 km/h (1 Bft) SW 219 0 min 0,000 mm 0,0 UV-I 21 W/m 15,9 C 17,0 C 8,0 km/h (2 Bft)
09.10.2014 15:15 16,9 C 93 % 1007,0 hPa 0,0 l/m 5,6 km/h (1 Bft) S 178 0 min 0,000 mm 0,0 UV-I 19 W/m 15,8 C 16,9 C 16,1 km/h (3 Bft)
09.10.2014 15:20 16,9 C 93 % 1007,0 hPa 0,2 l/m 3,5 km/h (1 Bft) W-SW 242 0 min 0,000 mm 0,0 UV-I 12 W/m 15,8 C 16,9 C 14,5 km/h (3 Bft)
09.10.2014 15:25 16,9 C 93 % 1007,1 hPa 0,4 l/m 6,1 km/h (2 Bft) SW 221 0 min 0,000 mm 0,0 UV-I 9 W/m 15,8 C 16,9 C 14,5 km/h (3 Bft)
09.10.2014 15:30 16,8 C 94 % 1007,2 hPa 0,6 l/m 5,9 km/h (2 Bft) W-NW 284 0 min 0,000 mm 0,0 UV-I 10 W/m 15,8 C 16,8 C 12,9 km/h (3 Bft)
09.10.2014 15:35 16,6 C 94 % 1007,2 hPa 1,8 l/m 8,6 km/h (2 Bft) W-NW 294 0 min 0,000 mm 0,0 UV-I 8 W/m 15,6 C 15,5 C 16,1 km/h (3 Bft)
09.10.2014 15:40 16,2 C 94 % 1007,2 hPa 1,6 l/m 4,7 km/h (1 Bft) N 360 0 min 0,000 mm 0,0 UV-I 13 W/m 15,2 C 16,2 C 12,9 km/h (3 Bft)
09.10.2014 15:45 16,1 C 94 % 1007,1 hPa 0,4 l/m 0,8 km/h (0 Bft) W-NW 283 0 min 0,000 mm 0,0 UV-I 25 W/m 15,1 C 16,1 C 4,8 km/h (1 Bft)
09.10.2014 15:50 15,9 C 94 % 1007,3 hPa 0,4 l/m 0,9 km/h (0 Bft) W 270 0 min 0,000 mm 0,0 UV-I 25 W/m 14,9 C 15,9 C 4,8 km/h (1 Bft)
09.10.2014 15:55 15,8 C 94 % 1007,4 hPa 0,0 l/m 0,0 km/h (0 Bft) W 270 0 min 0,000 mm 0,0 UV-I 22 W/m 14,8 C 15,8 C 1,6 km/h (1 Bft)
09.10.2014 16:00 15,8 C 94 % 1007,7 hPa 0,0 l/m 1,5 km/h (1 Bft) W 269 0 min 0,000 mm 0,0 UV-I 29 W/m 14,8 C 15,8 C 4,8 km/h (1 Bft)
09.10.2014 16:05 15,7 C 95 % 1007,8 hPa 0,2 l/m 2,3 km/h (1 Bft) W 271 0 min 0,025 mm 0,0 UV-I 42 W/m 14,9 C 15,7 C 8,0 km/h (2 Bft)
09.10.2014 16:10 15,6 C 94 % 1007,7 hPa 0,2 l/m 4,1 km/h (1 Bft) W 274 0 min 0,000 mm 0,0 UV-I 37 W/m 14,6 C 15,6 C 9,7 km/h (2 Bft)
09.10.2014 16:15 15,4 C 94 % 1007,8 hPa 0,2 l/m 3,9 km/h (1 Bft) W 263 0 min 0,000 mm 0,0 UV-I 27 W/m 14,4 C 15,4 C 9,7 km/h (2 Bft)
09.10.2014 16:20 15,3 C 94 % 1007,9 hPa 0,2 l/m 5,5 km/h (1 Bft) W 281 0 min 0,000 mm 0,0 UV-I 29 W/m 14,3 C 15,3 C 12,9 km/h (3 Bft)
09.10.2014 16:25 15,2 C 94 % 1007,9 hPa 0,2 l/m 2,3 km/h (1 Bft) W 276 0 min 0,000 mm 0,0 UV-I 25 W/m 14,2 C 15,2 C 8,0 km/h (2 Bft)
09.10.2014 16:30 15,2 C 95 % 1008,1 hPa 0,2 l/m 2,7 km/h (1 Bft) W-SW 245 0 min 0,000 mm 0,0 UV-I 24 W/m 14,4 C 15,2 C 6,4 km/h (2 Bft)
09.10.2014 16:35 15,1 C 95 % 1008,0 hPa 0,2 l/m 1,5 km/h (1 Bft) SW 227 0 min 0,000 mm 0,0 UV-I 21 W/m 14,3 C 15,1 C 8,0 km/h (2 Bft)
09.10.2014 16:40 14,9 C 95 % 1008,1 hPa 0,0 l/m 1,2 km/h (1 Bft) W-SW 242 0 min 0,000 mm 0,0 UV-I 22 W/m 14,1 C 14,9 C 4,8 km/h (1 Bft)
09.10.2014 16:45 14,8 C 94 % 1008,2 hPa 0,2 l/m 2,4 km/h (1 Bft) W-SW 248 0 min 0,000 mm 0,0 UV-I 27 W/m 13,8 C 14,8 C 8,0 km/h (2 Bft)
09.10.2014 16:50 14,6 C 94 % 1008,1 hPa 0,0 l/m 5,1 km/h (1 Bft) W 279 0 min 0,000 mm 0,0 UV-I 20 W/m 13,6 C 14,6 C 9,7 km/h (2 Bft)
09.10.2014 16:55 14,6 C 94 % 1008,2 hPa 0,2 l/m 3,9 km/h (1 Bft) S-SW 210 0 min 0,000 mm 0,0 UV-I 22 W/m 13,6 C 14,6 C 9,7 km/h (2 Bft)
09.10.2014 17:00 14,6 C 94 % 1008,1 hPa 0,2 l/m 0,6 km/h (0 Bft) S 190 0 min 0,000 mm 0,0 UV-I 24 W/m 13,6 C 14,6 C 6,4 km/h (2 Bft)
09.10.2014 17:05 14,5 C 94 % 1008,0 hPa 0,2 l/m 2,6 km/h (1 Bft) SW 224 0 min 0,026 mm 0,0 UV-I 28 W/m 13,5 C 14,5 C 8,0 km/h (2 Bft)
09.10.2014 17:10 14,4 C 93 % 1008,1 hPa 0,0 l/m 5,1 km/h (1 Bft) S-SW 196 0 min 0,000 mm 0,0 UV-I 32 W/m 13,3 C 14,4 C 11,3 km/h (2 Bft)
09.10.2014 17:15 14,4 C 93 % 1007,9 hPa 0,2 l/m 5,3 km/h (1 Bft) SW 236 0 min 0,000 mm 0,0 UV-I 32 W/m 13,3 C 14,4 C 17,7 km/h (3 Bft)
09.10.2014 17:20 14,3 C 93 % 1007,9 hPa 0,0 l/m 2,6 km/h (1 Bft) W 265 0 min 0,000 mm 0,0 UV-I 33 W/m 13,2 C 14,3 C 9,7 km/h (2 Bft)
09.10.2014 17:25 14,3 C 93 % 1007,9 hPa 0,0 l/m 1,3 km/h (1 Bft) SW 227 0 min 0,000 mm 0,0 UV-I 29 W/m 13,2 C 14,3 C 6,4 km/h (2 Bft)
09.10.2014 17:30 14,3 C 93 % 1008,0 hPa 0,0 l/m 4,9 km/h (1 Bft) W 277 0 min 0,000 mm 0,0 UV-I 24 W/m 13,2 C 14,3 C 9,7 km/h (2 Bft)
09.10.2014 17:35 14,3 C 93 % 1008,1 hPa 0,2 l/m 2,4 km/h (1 Bft) NW 304 0 min 0,000 mm 0,0 UV-I 25 W/m 13,2 C 14,3 C 6,4 km/h (2 Bft)
09.10.2014 17:40 14,2 C 94 % 1008,2 hPa 0,0 l/m 2,5 km/h (1 Bft) W-NW 285 0 min 0,000 mm 0,0 UV-I 24 W/m 13,2 C 14,2 C 6,4 km/h (2 Bft)
09.10.2014 17:45 14,2 C 94 % 1008,2 hPa 0,0 l/m 1,7 km/h (1 Bft) W 261 0 min 0,000 mm 0,0 UV-I 19 W/m 13,2 C 14,2 C 4,8 km/h (1 Bft)
09.10.2014 17:50 14,2 C 94 % 1008,3 hPa 0,0 l/m 2,5 km/h (1 Bft) W-SW 246 0 min 0,000 mm 0,0 UV-I 11 W/m 13,2 C 14,2 C 8,0 km/h (2 Bft)
09.10.2014 17:55 14,2 C 94 % 1008,0 hPa 0,2 l/m 0,8 km/h (0 Bft) SW 236 0 min 0,000 mm 0,0 UV-I 8 W/m 13,2 C 14,2 C 6,4 km/h (2 Bft)
09.10.2014 18:00 14,1 C 94 % 1008,1 hPa 0,0 l/m 2,2 km/h (1 Bft) S-SW 204 0 min 0,000 mm 0,0 UV-I 11 W/m 13,1 C 14,1 C 9,7 km/h (2 Bft)
09.10.2014 18:05 14,1 C 94 % 1008,1 hPa 0,0 l/m 1,3 km/h (1 Bft) W-SW 238 0 min 0,025 mm 0,0 UV-I 6 W/m 13,1 C 14,1 C 8,0 km/h (2 Bft)
09.10.2014 18:10 14,0 C 94 % 1008,2 hPa 0,0 l/m 2,6 km/h (1 Bft) S-SW 198 0 min 0,000 mm 0,0 UV-I 2 W/m 13,0 C 14,0 C 11,3 km/h (2 Bft)
09.10.2014 18:15 13,9 C 94 % 1008,4 hPa 0,0 l/m 3,6 km/h (1 Bft) W 272 0 min 0,000 mm 0,0 UV-I 2 W/m 12,9 C 13,9 C 9,7 km/h (2 Bft)
09.10.2014 18:20 13,9 C 94 % 1008,4 hPa 0,0 l/m 3,6 km/h (1 Bft) W-SW 245 0 min 0,000 mm 0,0 UV-I 7 W/m 12,9 C 13,9 C 8,0 km/h (2 Bft)
09.10.2014 18:25 13,9 C 94 % 1008,3 hPa 0,0 l/m 0,7 km/h (0 Bft) SW 232 0 min 0,000 mm 0,0 UV-I 9 W/m 12,9 C 13,9 C 4,8 km/h (1 Bft)
09.10.2014 18:30 13,9 C 94 % 1008,4 hPa 0,2 l/m 2,7 km/h (1 Bft) SW 215 0 min 0,000 mm 0,0 UV-I 7 W/m 12,9 C 13,9 C 12,9 km/h (3 Bft)
09.10.2014 18:35 13,9 C 94 % 1008,6 hPa 0,0 l/m 2,8 km/h (1 Bft) SW 217 0 min 0,000 mm 0,0 UV-I 3 W/m 12,9 C 13,9 C 8,0 km/h (2 Bft)
09.10.2014 18:40 13,9 C 94 % 1008,6 hPa 0,0 l/m 2,9 km/h (1 Bft) S-SW 197 0 min 0,000 mm 0,0 UV-I 0 W/m 12,9 C 13,9 C 9,7 km/h (2 Bft)
09.10.2014 18:45 13,9 C 95 % 1008,7 hPa 0,0 l/m 5,7 km/h (1 Bft) SW 214 0 min 0,000 mm 0,0 UV-I 4 W/m 13,1 C 13,9 C 12,9 km/h (3 Bft)
09.10.2014 18:50 13,9 C 95 % 1009,0 hPa 0,0 l/m 7,6 km/h (2 Bft) SW 219 0 min 0,000 mm 0,0 UV-I 12 W/m 13,1 C 13,2 C 12,9 km/h (3 Bft)
09.10.2014 18:55 14,0 C 95 % 1009,2 hPa 0,0 l/m 4,4 km/h (1 Bft) W 269 0 min 0,000 mm 0,0 UV-I 3 W/m 13,2 C 14,0 C 11,3 km/h (2 Bft)
09.10.2014 19:00 14,0 C 95 % 1009,3 hPa 0,0 l/m 3,2 km/h (1 Bft) S-SW 200 0 min 0,000 mm 0,0 UV-I 0 W/m 13,2 C 14,0 C 14,5 km/h (3 Bft)
09.10.2014 19:05 14,0 C 95 % 1009,2 hPa 0,0 l/m 3,1 km/h (1 Bft) S-SW 204 0 min 0,000 mm 0,0 UV-I 0 W/m 13,2 C 14,0 C 9,7 km/h (2 Bft)
09.10.2014 19:10 14,0 C 95 % 1009,1 hPa 0,0 l/m 3,2 km/h (1 Bft) W-SW 246 0 min 0,000 mm 0,0 UV-I 0 W/m 13,2 C 14,0 C 8,0 km/h (2 Bft)
09.10.2014 19:15 14,1 C 95 % 1009,3 hPa 0,0 l/m 2,0 km/h (1 Bft) S-SW 205 0 min 0,000 mm 0,0 UV-I 0 W/m 13,3 C 14,1 C 6,4 km/h (2 Bft)
09.10.2014 19:20 14,1 C 95 % 1009,2 hPa 0,0 l/m 0,7 km/h (0 Bft) S-SW 213 0 min 0,000 mm 0,0 UV-I 0 W/m 13,3 C 14,1 C 4,8 km/h (1 Bft)
09.10.2014 19:25 14,1 C 95 % 1009,4 hPa 0,0 l/m 0,9 km/h (0 Bft) W-SW 242 0 min 0,000 mm 0,0 UV-I 0 W/m 13,3 C 14,1 C 6,4 km/h (2 Bft)
09.10.2014 19:30 14,1 C 95 % 1009,4 hPa 0,0 l/m 0,2 km/h (0 Bft) SW 236 0 min 0,000 mm 0,0 UV-I 0 W/m 13,3 C 14,1 C 3,2 km/h (1 Bft)
09.10.2014 19:35 14,1 C 95 % 1009,4 hPa 0,0 l/m 0,6 km/h (0 Bft) W-SW 245 0 min 0,000 mm 0,0 UV-I 0 W/m 13,3 C 14,1 C 4,8 km/h (1 Bft)
09.10.2014 19:40 14,1 C 95 % 1009,6 hPa 0,0 l/m 1,0 km/h (0 Bft) W 280 0 min 0,000 mm 0,0 UV-I 0 W/m 13,3 C 14,1 C 4,8 km/h (1 Bft)
09.10.2014 19:45 14,1 C 95 % 1009,5 hPa 0,0 l/m 1,5 km/h (1 Bft) W-SW 246 0 min 0,000 mm 0,0 UV-I 0 W/m 13,3 C 14,1 C 4,8 km/h (1 Bft)
09.10.2014 19:50 14,1 C 95 % 1009,7 hPa 0,0 l/m 3,4 km/h (1 Bft) W 267 0 min 0,000 mm 0,0 UV-I 0 W/m 13,3 C 14,1 C 9,7 km/h (2 Bft)
09.10.2014 19:55 14,1 C 95 % 1009,7 hPa 0,0 l/m 2,4 km/h (1 Bft) W 269 0 min 0,000 mm 0,0 UV-I 0 W/m 13,3 C 14,1 C 8,0 km/h (2 Bft)
09.10.2014 20:00 14,1 C 95 % 1009,7 hPa 0,0 l/m 1,1 km/h (1 Bft) W-SW 250 0 min 0,000 mm 0,0 UV-I 0 W/m 13,3 C 14,1 C 6,4 km/h (2 Bft)
09.10.2014 20:05 14,0 C 95 % 1009,7 hPa 0,0 l/m 0,4 km/h (0 Bft) W-NW 298 0 min 0,000 mm 0,0 UV-I 0 W/m 13,2 C 14,0 C 3,2 km/h (1 Bft)
09.10.2014 20:10 13,9 C 95 % 1009,6 hPa 0,0 l/m 1,0 km/h (0 Bft) W 279 0 min 0,000 mm 0,0 UV-I 0 W/m 13,1 C 13,9 C 6,4 km/h (2 Bft)
09.10.2014 20:15 13,9 C 95 % 1009,6 hPa 0,0 l/m 0,6 km/h (0 Bft) W 279 0 min 0,000 mm 0,0 UV-I 0 W/m 13,1 C 13,9 C 3,2 km/h (1 Bft)
09.10.2014 20:20 13,9 C 95 % 1009,7 hPa 0,0 l/m 0,2 km/h (0 Bft) SW 232 0 min 0,000 mm 0,0 UV-I 0 W/m 13,1 C 13,9 C 3,2 km/h (1 Bft)
09.10.2014 20:25 13,8 C 95 % 1009,9 hPa 0,0 l/m 0,1 km/h (0 Bft) W 259 0 min 0,000 mm 0,0 UV-I 0 W/m 13,0 C 13,8 C 1,6 km/h (1 Bft)
09.10.2014 20:30 13,7 C 95 % 1009,9 hPa 0,0 l/m 1,0 km/h (0 Bft) S-SW 205 0 min 0,000 mm 0,0 UV-I 0 W/m 12,9 C 13,7 C 8,0 km/h (2 Bft)
09.10.2014 20:35 13,6 C 95 % 1010,1 hPa 0,0 l/m 1,8 km/h (1 Bft) W 260 0 min 0,000 mm 0,0 UV-I 0 W/m 12,8 C 13,6 C 8,0 km/h (2 Bft)
09.10.2014 20:40 13,6 C 94 % 1010,2 hPa 0,0 l/m 2,2 km/h (1 Bft) W 268 0 min 0,000 mm 0,0 UV-I 0 W/m 12,7 C 13,6 C 8,0 km/h (2 Bft)
09.10.2014 20:45 13,5 C 94 % 1010,1 hPa 0,0 l/m 0,5 km/h (0 Bft) W 267 0 min 0,000 mm 0,0 UV-I 0 W/m 12,6 C 13,5 C 6,4 km/h (2 Bft)
09.10.2014 20:50 13,4 C 94 % 1010,2 hPa 0,0 l/m 1,1 km/h (1 Bft) SW 235 0 min 0,000 mm 0,0 UV-I 0 W/m 12,5 C 13,4 C 4,8 km/h (1 Bft)
09.10.2014 20:55 13,3 C 94 % 1010,3 hPa 0,0 l/m 0,7 km/h (0 Bft) W-SW 257 0 min 0,000 mm 0,0 UV-I 0 W/m 12,4 C 13,3 C 4,8 km/h (1 Bft)
09.10.2014 21:00 13,3 C 94 % 1010,4 hPa 0,0 l/m 2,3 km/h (1 Bft) W-SW 249 0 min 0,000 mm 0,0 UV-I 0 W/m 12,4 C 13,3 C 8,0 km/h (2 Bft)
09.10.2014 21:05 13,2 C 94 % 1010,4 hPa 0,0 l/m 1,6 km/h (1 Bft) SW 232 0 min 0,000 mm 0,0 UV-I 0 W/m 12,3 C 13,2 C 6,4 km/h (2 Bft)
09.10.2014 21:10 13,2 C 94 % 1010,5 hPa 0,0 l/m 1,4 km/h (1 Bft) W-SW 249 0 min 0,000 mm 0,0 UV-I 0 W/m 12,3 C 13,2 C 6,4 km/h (2 Bft)
09.10.2014 21:15 13,2 C 94 % 1010,5 hPa 0,0 l/m 1,6 km/h (1 Bft) W-SW 252 0 min 0,000 mm 0,0 UV-I 0 W/m 12,3 C 13,2 C 6,4 km/h (2 Bft)
09.10.2014 21:20 13,2 C 94 % 1010,7 hPa 0,0 l/m 3,5 km/h (1 Bft) W-NW 289 0 min 0,000 mm 0,0 UV-I 0 W/m 12,3 C 13,2 C 8,0 km/h (2 Bft)
09.10.2014 21:25 13,1 C 94 % 1010,5 hPa 0,0 l/m 3,0 km/h (1 Bft) W-SW 248 0 min 0,000 mm 0,0 UV-I 0 W/m 12,2 C 13,1 C 6,4 km/h (2 Bft)
09.10.2014 21:30 13,1 C 94 % 1010,6 hPa 0,0 l/m 3,1 km/h (1 Bft) W-NW 286 0 min 0,000 mm 0,0 UV-I 0 W/m 12,2 C 13,1 C 8,0 km/h (2 Bft)
09.10.2014 21:35 13,1 C 94 % 1010,7 hPa 0,0 l/m 5,6 km/h (1 Bft) NW 326 0 min 0,000 mm 0,0 UV-I 0 W/m 12,2 C 13,1 C 11,3 km/h (2 Bft)
09.10.2014 21:40 13,1 C 94 % 1010,6 hPa 0,0 l/m 4,8 km/h (1 Bft) W 263 0 min 0,000 mm 0,0 UV-I 0 W/m 12,2 C 13,1 C 8,0 km/h (2 Bft)
09.10.2014 21:45 13,0 C 94 % 1010,7 hPa 0,0 l/m 4,7 km/h (1 Bft) W 275 0 min 0,000 mm 0,0 UV-I 0 W/m 12,1 C 13,0 C 9,7 km/h (2 Bft)
09.10.2014 21:50 13,0 C 94 % 1010,6 hPa 0,0 l/m 2,5 km/h (1 Bft) W-NW 290 0 min 0,000 mm 0,0 UV-I 0 W/m 12,1 C 13,0 C 8,0 km/h (2 Bft)
09.10.2014 21:55 12,9 C 94 % 1010,8 hPa 0,0 l/m 3,5 km/h (1 Bft) W-NW 299 0 min 0,000 mm 0,0 UV-I 0 W/m 12,0 C 12,9 C 11,3 km/h (2 Bft)
09.10.2014 22:00 12,9 C 94 % 1010,8 hPa 0,0 l/m 2,4 km/h (1 Bft) W-NW 296 0 min 0,000 mm 0,0 UV-I 0 W/m 12,0 C 12,9 C 8,0 km/h (2 Bft)
09.10.2014 22:05 12,9 C 94 % 1010,9 hPa 0,0 l/m 4,5 km/h (1 Bft) W 263 0 min 0,000 mm 0,0 UV-I 0 W/m 12,0 C 12,9 C 9,7 km/h (2 Bft)
09.10.2014 22:10 12,8 C 94 % 1010,8 hPa 0,0 l/m 3,5 km/h (1 Bft) W 271 0 min 0,000 mm 0,0 UV-I 0 W/m 11,9 C 12,8 C 8,0 km/h (2 Bft)
09.10.2014 22:15 12,8 C 94 % 1010,9 hPa 0,0 l/m 3,5 km/h (1 Bft) W-SW 245 0 min 0,000 mm 0,0 UV-I 0 W/m 11,9 C 12,8 C 6,4 km/h (2 Bft)
09.10.2014 22:20 12,8 C 94 % 1010,9 hPa 0,0 l/m 3,5 km/h (1 Bft) W-NW 296 0 min 0,000 mm 0,0 UV-I 0 W/m 11,9 C 12,8 C 6,4 km/h (2 Bft)
09.10.2014 22:25 12,7 C 94 % 1011,1 hPa 0,0 l/m 2,1 km/h (1 Bft) W-SW 256 0 min 0,000 mm 0,0 UV-I 0 W/m 11,8 C 12,7 C 8,0 km/h (2 Bft)
09.10.2014 22:30 12,7 C 94 % 1011,1 hPa 0,0 l/m 3,1 km/h (1 Bft) W 280 0 min 0,000 mm 0,0 UV-I 0 W/m 11,8 C 12,7 C 8,0 km/h (2 Bft)
09.10.2014 22:35 12,7 C 94 % 1011,1 hPa 0,0 l/m 3,9 km/h (1 Bft) W 269 0 min 0,000 mm 0,0 UV-I 0 W/m 11,8 C 12,7 C 9,7 km/h (2 Bft)
09.10.2014 22:40 12,6 C 94 % 1011,1 hPa 0,0 l/m 1,9 km/h (1 Bft) W-NW 286 0 min 0,000 mm 0,0 UV-I 0 W/m 11,7 C 12,6 C 8,0 km/h (2 Bft)
09.10.2014 22:45 12,6 C 94 % 1011,1 hPa 0,0 l/m 2,3 km/h (1 Bft) W 266 0 min 0,000 mm 0,0 UV-I 0 W/m 11,7 C 12,6 C 6,4 km/h (2 Bft)
09.10.2014 22:50 12,5 C 94 % 1011,1 hPa 0,0 l/m 0,3 km/h (0 Bft) W 269 0 min 0,000 mm 0,0 UV-I 0 W/m 11,6 C 12,5 C 3,2 km/h (1 Bft)
09.10.2014 22:55 12,4 C 94 % 1011,2 hPa 0,0 l/m 0,6 km/h (0 Bft) W-NW 283 0 min 0,000 mm 0,0 UV-I 0 W/m 11,5 C 12,4 C 6,4 km/h (2 Bft)
09.10.2014 23:00 12,4 C 94 % 1011,3 hPa 0,0 l/m 0,4 km/h (0 Bft) W-NW 283 0 min 0,000 mm 0,0 UV-I 0 W/m 11,5 C 12,4 C 3,2 km/h (1 Bft)
09.10.2014 23:05 12,3 C 94 % 1011,3 hPa 0,0 l/m 0,2 km/h (0 Bft) W-NW 283 0 min 0,000 mm 0,0 UV-I 0 W/m 11,4 C 12,3 C 3,2 km/h (1 Bft)
09.10.2014 23:10 12,3 C 94 % 1011,4 hPa 0,0 l/m 4,2 km/h (1 Bft) W 265 0 min 0,000 mm 0,0 UV-I 0 W/m 11,4 C 12,3 C 11,3 km/h (2 Bft)
09.10.2014 23:15 12,3 C 94 % 1011,3 hPa 0,0 l/m 4,1 km/h (1 Bft) W 267 0 min 0,000 mm 0,0 UV-I 0 W/m 11,4 C 12,3 C 9,7 km/h (2 Bft)
09.10.2014 23:20 12,3 C 94 % 1011,4 hPa 0,0 l/m 4,4 km/h (1 Bft) NW 311 0 min 0,000 mm 0,0 UV-I 0 W/m 11,4 C 12,3 C 12,9 km/h (3 Bft)
09.10.2014 23:25 12,3 C 94 % 1011,4 hPa 0,0 l/m 4,5 km/h (1 Bft) W 274 0 min 0,000 mm 0,0 UV-I 0 W/m 11,4 C 12,3 C 11,3 km/h (2 Bft)
09.10.2014 23:30 12,2 C 94 % 1011,5 hPa 0,0 l/m 5,0 km/h (1 Bft) NW 312 0 min 0,000 mm 0,0 UV-I 0 W/m 11,3 C 12,2 C 9,7 km/h (2 Bft)
09.10.2014 23:35 12,2 C 94 % 1011,5 hPa 0,0 l/m 4,8 km/h (1 Bft) W-NW 297 0 min 0,000 mm 0,0 UV-I 0 W/m 11,3 C 12,2 C 11,3 km/h (2 Bft)
09.10.2014 23:40 12,2 C 94 % 1011,6 hPa 0,0 l/m 4,8 km/h (1 Bft) W 275 0 min 0,000 mm 0,0 UV-I 0 W/m 11,3 C 12,2 C 9,7 km/h (2 Bft)
09.10.2014 23:45 12,2 C 94 % 1011,6 hPa 0,0 l/m 5,9 km/h (2 Bft) W 267 0 min 0,000 mm 0,0 UV-I 0 W/m 11,3 C 12,2 C 11,3 km/h (2 Bft)
09.10.2014 23:50 12,1 C 94 % 1011,7 hPa 0,0 l/m 6,2 km/h (2 Bft) NW 304 0 min 0,000 mm 0,0 UV-I 0 W/m 11,2 C 12,1 C 11,3 km/h (2 Bft)
09.10.2014 23:55 12,1 C 94 % 1011,9 hPa 0,0 l/m 4,4 km/h (1 Bft) NW 312 0 min 0,000 mm 0,0 UV-I 0 W/m 11,2 C 12,1 C 8,0 km/h (2 Bft)
_ Min-Zeit 23:50 02:35 00:50 - 00:30 - - - - - - 23:50 23:50 01:40
Minimum _ 12,1 C 92 % 1003,5 hPa - 0,0 km/h (0 Bft) - - - - - - 11,2 C 12,1 C 0,0 km/h (0 Bft)
_ Max-Zeit 14:05 00:00 23:55 15:35 02:50 - - 00:00 14:05 13:20 13:20 13:45 14:10 02:45
Maximum _ 17,2 C 96 % 1011,9 hPa 1,8 l/m 10,3 km/h
W-SW (2 Bft)
- - 0 min 0,076 mm 1,7 UV-I 209 W/m 16,1 C 17,2 C 25,7 km/h
W-SW (4 Bft)
Durchschnitt _ 15,1 C 94 % 1007,1 hPa #13,4 l/m 2,7 km/h (1 Bft) W-SW - #0 min. #0,330 mm 0,7 UV-I 44 W/m 14,2 C 15,1 C 8,6 km/h (2 Bft)